Time,TemperatureF,DewpointF,PressureIn,WindDirection,WindDirectionDegrees,WindSpeedMPH,WindSpeedGustMPH,Humidity,HourlyPrecipIn,Conditions,Clouds,dailyrainin,SoftwareType,DateUTC
2013-02-09 00:01:00,27.0,24.0,30.19,ESE,114,4.0,10.0,90,0.00,,,0.00,,2013-02-09 06:01:00,
2013-02-09 00:11:00,27.0,24.0,30.19,ESE,114,4.0,10.0,90,0.00,,,0.00,,2013-02-09 06:11:00,
2013-02-09 00:21:00,27.0,25.0,30.19,SE,126,8.0,13.0,92,0.00,,,0.00,,2013-02-09 06:21:00,
2013-02-09 00:31:00,27.0,25.0,30.19,SE,130,10.0,19.0,92,0.00,,,0.00,,2013-02-09 06:31:00,
2013-02-09 00:42:00,27.0,25.0,30.19,SE,130,10.0,19.0,92,0.00,,,0.00,,2013-02-09 06:42:00,
2013-02-09 00:52:00,28.0,26.0,30.19,SE,128,11.0,19.0,92,0.00,,,0.00,,2013-02-09 06:52:00,
2013-02-09 01:01:00,28.0,26.0,30.19,SSE,148,11.0,18.0,92,0.00,,,0.00,,2013-02-09 07:01:00,
2013-02-09 01:11:00,28.0,26.0,30.19,SSE,148,11.0,18.0,92,0.00,,,0.00,,2013-02-09 07:11:00,
2013-02-09 01:21:00,28.0,26.0,30.18,ESE,120,10.0,19.0,92,0.00,,,0.00,,2013-02-09 07:21:00,
2013-02-09 01:31:00,29.0,27.0,30.17,SSE,159,10.0,17.0,92,0.00,,,0.00,,2013-02-09 07:31:00,
2013-02-09 01:42:00,29.0,27.0,30.17,SSE,159,10.0,17.0,92,0.00,,,0.00,,2013-02-09 07:42:00,
2013-02-09 01:52:00,29.0,27.0,30.17,SSE,165,11.0,20.0,92,0.00,,,0.00,,2013-02-09 07:52:00,
2013-02-09 02:01:00,28.0,26.0,30.16,SE,126,10.0,22.0,93,0.00,,,0.00,,2013-02-09 08:01:00,
2013-02-09 02:11:00,28.0,26.0,30.16,SE,126,10.0,22.0,93,0.00,,,0.00,,2013-02-09 08:11:00,
2013-02-09 02:21:00,28.0,26.0,30.16,SSE,150,11.0,20.0,93,0.00,,,0.00,,2013-02-09 08:21:00,
2013-02-09 02:31:00,28.0,26.0,30.16,SE,146,9.0,18.0,93,0.00,,,0.00,,2013-02-09 08:31:00,
2013-02-09 02:42:00,28.0,26.0,30.16,SE,146,9.0,18.0,93,0.00,,,0.00,,2013-02-09 08:42:00,
2013-02-09 02:52:00,28.0,26.0,30.16,SSE,162,8.0,21.0,93,0.00,,,0.00,,2013-02-09 08:52:00,
2013-02-09 03:03:00,28.0,26.0,30.16,South,169,9.0,18.0,93,0.00,,,0.00,,2013-02-09 09:03:00,
2013-02-09 03:11:00,28.0,26.0,30.16,South,169,9.0,18.0,93,0.00,,,0.00,,2013-02-09 09:11:00,
2013-02-09 03:21:00,29.0,27.0,30.15,South,180,9.0,14.0,93,0.00,,,0.00,,2013-02-09 09:21:00,
2013-02-09 03:31:00,29.0,27.0,30.14,SE,126,10.0,19.0,93,0.00,,,0.00,,2013-02-09 09:31:00,
2013-02-09 03:41:00,29.0,27.0,30.14,SE,126,10.0,19.0,93,0.00,,,0.00,,2013-02-09 09:41:00,
2013-02-09 03:52:00,29.0,27.0,30.14,SE,138,8.0,19.0,93,0.00,,,0.00,,2013-02-09 09:52:00,
2013-02-09 04:01:00,29.0,27.0,30.13,SSE,149,10.0,16.0,93,0.00,,,0.00,,2013-02-09 10:01:00,
2013-02-09 04:11:00,29.0,27.0,30.13,SSE,149,10.0,16.0,93,0.00,,,0.00,,2013-02-09 10:11:00,
2013-02-09 04:21:00,29.0,27.0,30.12,SE,142,13.0,21.0,93,0.00,,,0.00,,2013-02-09 10:21:00,
2013-02-09 04:31:00,29.0,27.0,30.11,SSE,166,9.0,19.0,93,0.00,,,0.00,,2013-02-09 10:31:00,
2013-02-09 04:41:00,29.0,27.0,30.11,SSE,166,9.0,19.0,93,0.00,,,0.00,,2013-02-09 10:41:00,
2013-02-09 04:52:00,29.0,27.0,30.11,South,175,9.0,18.0,93,0.00,,,0.00,,2013-02-09 10:52:00,
2013-02-09 05:01:00,29.0,27.0,30.11,SE,145,12.0,21.0,93,0.00,,,0.00,,2013-02-09 11:01:00,
2013-02-09 05:11:00,29.0,27.0,30.11,SE,145,12.0,21.0,93,0.00,,,0.00,,2013-02-09 11:11:00,
2013-02-09 05:22:00,29.0,27.0,30.09,ESE,105,10.0,20.0,93,0.00,,,0.00,,2013-02-09 11:22:00,
2013-02-09 05:31:00,29.0,27.0,30.09,SSE,163,11.0,23.0,93,0.00,,,0.00,,2013-02-09 11:31:00,
2013-02-09 05:41:00,29.0,27.0,30.09,SSE,163,11.0,23.0,93,0.00,,,0.00,,2013-02-09 11:41:00,
2013-02-09 05:52:00,30.0,28.0,30.09,SSE,152,12.0,19.0,93,0.00,,,0.00,,2013-02-09 11:52:00,
2013-02-09 06:02:00,30.0,28.0,30.09,SE,145,9.0,22.0,92,0.00,,,0.00,,2013-02-09 12:02:00,
2013-02-09 06:11:00,30.0,28.0,30.09,SE,145,9.0,22.0,92,0.00,,,0.00,,2013-02-09 12:11:00,
2013-02-09 06:21:00,30.0,28.0,30.08,SSE,161,11.0,21.0,92,0.00,,,0.00,,2013-02-09 12:21:00,
2013-02-09 06:32:00,30.0,28.0,30.08,SSE,161,7.0,17.0,92,0.00,,,0.00,,2013-02-09 12:32:00,
2013-02-09 06:42:00,30.0,28.0,30.08,SSE,161,7.0,17.0,92,0.00,,,0.00,,2013-02-09 12:42:00,
2013-02-09 06:52:00,30.0,28.0,30.08,SSE,149,11.0,19.0,92,0.00,,,0.00,,2013-02-09 12:52:00,
2013-02-09 07:02:00,30.0,28.0,30.08,SSE,155,9.0,18.0,92,0.00,,,0.00,,2013-02-09 13:02:00,
2013-02-09 07:11:00,30.0,28.0,30.08,SSE,155,9.0,18.0,92,0.00,,,0.00,,2013-02-09 13:11:00,
2013-02-09 07:21:00,30.0,28.0,30.07,SSE,147,11.0,18.0,91,0.00,,,0.00,,2013-02-09 13:21:00,
2013-02-09 07:32:00,30.0,28.0,30.07,SSE,155,8.0,19.0,91,0.00,,,0.00,,2013-02-09 13:32:00,
2013-02-09 07:42:00,30.0,28.0,30.07,SSE,155,8.0,19.0,91,0.00,,,0.00,,2013-02-09 13:42:00,
2013-02-09 07:52:00,30.0,28.0,30.07,SSE,152,10.0,17.0,91,0.00,,,0.00,,2013-02-09 13:52:00,
2013-02-09 08:01:00,30.0,28.0,30.07,SE,135,12.0,18.0,91,0.00,,,0.00,,2013-02-09 14:01:00,
2013-02-09 08:11:00,30.0,28.0,30.07,SE,135,12.0,18.0,91,0.00,,,0.00,,2013-02-09 14:11:00,
2013-02-09 08:21:00,30.0,28.0,30.07,SE,134,9.0,20.0,91,0.00,,,0.00,,2013-02-09 14:21:00,
2013-02-09 08:31:00,30.0,28.0,30.06,SSE,167,12.0,20.0,91,0.00,,,0.00,,2013-02-09 14:31:00,
2013-02-09 08:41:00,30.0,28.0,30.06,SSE,167,12.0,20.0,91,0.00,,,0.00,,2013-02-09 14:41:00,
2013-02-09 08:52:00,30.0,28.0,30.06,SE,146,13.0,22.0,91,0.00,,,0.00,,2013-02-09 14:52:00,
2013-02-09 09:01:00,30.0,28.0,30.05,SSE,154,14.0,21.0,91,0.00,,,0.00,,2013-02-09 15:01:00,
2013-02-09 09:11:00,30.0,28.0,30.05,SSE,154,14.0,21.0,91,0.00,,,0.00,,2013-02-09 15:11:00,
2013-02-09 09:21:00,31.0,28.0,30.05,SSE,157,13.0,23.0,90,0.00,,,0.00,,2013-02-09 15:21:00,
2013-02-09 09:32:00,31.0,28.0,30.05,SSE,157,13.0,23.0,90,0.00,,,0.00,,2013-02-09 15:32:00,
2013-02-09 09:42:00,31.0,28.0,30.05,SSE,157,13.0,23.0,90,0.00,,,0.00,,2013-02-09 15:42:00,
2013-02-09 09:51:00,32.0,29.0,30.05,South,190,11.0,23.0,89,0.00,,,0.00,,2013-02-09 15:51:00,
2013-02-09 10:01:00,32.0,29.0,30.05,SSW,195,13.0,22.0,88,0.00,,,0.00,,2013-02-09 16:01:00,
2013-02-09 10:11:00,32.0,29.0,30.05,SSW,195,13.0,22.0,88,0.00,,,0.00,,2013-02-09 16:11:00,
2013-02-09 10:22:00,32.0,29.0,30.05,SSW,195,13.0,22.0,88,0.00,,,0.00,,2013-02-09 16:22:00,
2013-02-09 10:31:00,33.0,29.0,30.03,SSE,155,16.0,23.0,86,0.00,,,0.00,,2013-02-09 16:31:00,
2013-02-09 10:41:00,33.0,29.0,30.03,SSE,155,16.0,23.0,86,0.00,,,0.00,,2013-02-09 16:41:00,
2013-02-09 10:51:00,33.0,29.0,30.03,SSE,155,16.0,23.0,86,0.00,,,0.00,,2013-02-09 16:51:00,
2013-02-09 11:01:00,34.0,30.0,30.03,SE,142,16.0,23.0,85,0.00,,,0.00,,2013-02-09 17:01:00,
2013-02-09 11:11:00,34.0,30.0,30.03,SE,142,16.0,23.0,85,0.00,,,0.00,,2013-02-09 17:11:00,
2013-02-09 11:21:00,36.0,31.0,30.02,SE,139,12.0,22.0,83,0.00,,,0.00,,2013-02-09 17:21:00,
2013-02-09 11:32:00,36.0,31.0,30.02,South,171,10.0,30.0,82,0.00,,,0.00,,2013-02-09 17:32:00,
2013-02-09 11:42:00,36.0,31.0,30.02,South,171,10.0,30.0,82,0.00,,,0.00,,2013-02-09 17:42:00,
2013-02-09 11:52:00,38.0,32.0,30.01,SSE,161,16.0,25.0,79,0.00,,,0.00,,2013-02-09 17:52:00,
2013-02-09 12:02:00,38.0,32.0,30.00,SE,144,15.0,25.0,78,0.00,,,0.00,,2013-02-09 18:02:00,
2013-02-09 12:12:00,38.0,32.0,30.00,SE,144,15.0,25.0,78,0.00,,,0.00,,2013-02-09 18:12:00,
2013-02-09 12:23:00,39.0,32.0,29.99,SSE,150,12.0,23.0,77,0.00,,,0.00,,2013-02-09 18:23:00,
2013-02-09 12:32:00,40.0,33.0,29.98,SE,138,13.0,25.0,76,0.00,,,0.00,,2013-02-09 18:32:00,
2013-02-09 12:42:00,40.0,33.0,29.98,SE,138,13.0,25.0,76,0.00,,,0.00,,2013-02-09 18:42:00,
2013-02-09 12:51:00,41.0,34.0,29.97,SSE,161,15.0,22.0,75,0.00,,,0.00,,2013-02-09 18:51:00,
2013-02-09 13:01:00,41.0,33.0,29.96,South,172,13.0,25.0,74,0.00,,,0.00,,2013-02-09 19:01:00,
2013-02-09 13:11:00,41.0,33.0,29.96,South,172,13.0,25.0,74,0.00,,,0.00,,2013-02-09 19:11:00,
2013-02-09 13:22:00,42.0,34.0,29.95,SSE,150,11.0,22.0,74,0.00,,,0.00,,2013-02-09 19:22:00,
2013-02-09 13:32:00,42.0,34.0,29.93,SE,142,13.0,24.0,73,0.00,,,0.00,,2013-02-09 19:32:00,
2013-02-09 13:42:00,42.0,34.0,29.93,SE,142,13.0,24.0,73,0.00,,,0.00,,2013-02-09 19:42:00,
2013-02-09 13:52:00,43.0,35.0,29.92,South,172,11.0,23.0,72,0.00,,,0.00,,2013-02-09 19:52:00,
2013-02-09 14:01:00,43.0,35.0,29.91,ESE,104,8.0,20.0,72,0.00,,,0.00,,2013-02-09 20:01:00,
2013-02-09 14:11:00,43.0,35.0,29.91,ESE,104,8.0,20.0,72,0.00,,,0.00,,2013-02-09 20:11:00,
2013-02-09 14:21:00,44.0,35.0,29.89,SSE,150,15.0,23.0,71,0.00,,,0.00,,2013-02-09 20:21:00,
2013-02-09 14:32:00,44.0,36.0,29.88,ESE,108,10.0,21.0,72,0.00,,,0.00,,2013-02-09 20:32:00,
2013-02-09 14:42:00,44.0,36.0,29.88,ESE,108,10.0,21.0,72,0.00,,,0.00,,2013-02-09 20:42:00,
2013-02-09 14:52:00,45.0,36.0,29.87,SE,133,12.0,20.0,70,0.00,,,0.00,,2013-02-09 20:52:00,
2013-02-09 15:02:00,45.0,35.0,29.86,SE,131,16.0,26.0,69,0.00,,,0.00,,2013-02-09 21:02:00,
2013-02-09 15:11:00,45.0,35.0,29.86,SE,131,16.0,26.0,69,0.00,,,0.00,,2013-02-09 21:11:00,
2013-02-09 15:21:00,46.0,36.0,29.85,SSE,150,10.0,20.0,68,0.00,,,0.00,,2013-02-09 21:21:00,
2013-02-09 15:32:00,46.0,36.0,29.85,South,171,9.0,20.0,68,0.00,,,0.00,,2013-02-09 21:32:00,
2013-02-09 15:42:00,46.0,36.0,29.85,South,171,9.0,20.0,68,0.00,,,0.00,,2013-02-09 21:42:00,
2013-02-09 15:52:00,47.0,37.0,29.85,SE,146,10.0,23.0,67,0.00,,,0.00,,2013-02-09 21:52:00,
2013-02-09 16:01:00,46.0,36.0,29.84,SSE,161,7.0,24.0,68,0.00,,,0.00,,2013-02-09 22:01:00,
2013-02-09 16:11:00,46.0,36.0,29.84,SSE,161,7.0,24.0,68,0.00,,,0.00,,2013-02-09 22:11:00,
2013-02-09 16:21:00,46.0,36.0,29.83,SE,131,9.0,21.0,68,0.00,,,0.00,,2013-02-09 22:21:00,
2013-02-09 16:32:00,46.0,36.0,29.82,ESE,104,9.0,17.0,68,0.00,,,0.00,,2013-02-09 22:32:00,
2013-02-09 16:42:00,46.0,36.0,29.82,ESE,104,9.0,17.0,68,0.00,,,0.00,,2013-02-09 22:42:00,
2013-02-09 16:52:00,46.0,36.0,29.80,ESE,107,10.0,21.0,68,0.00,,,0.00,,2013-02-09 22:52:00,
2013-02-09 17:01:00,47.0,37.0,29.81,SSE,159,10.0,21.0,68,0.00,,,0.00,,2013-02-09 23:01:00,
2013-02-09 17:11:00,47.0,37.0,29.81,SSE,159,10.0,21.0,68,0.00,,,0.00,,2013-02-09 23:11:00,
2013-02-09 17:21:00,46.0,37.0,29.81,ESE,114,8.0,22.0,70,0.00,,,0.00,,2013-02-09 23:21:00,
2013-02-09 17:32:00,46.0,37.0,29.81,ESE,123,12.0,17.0,70,0.00,,,0.00,,2013-02-09 23:32:00,
2013-02-09 17:42:00,46.0,37.0,29.81,ESE,123,12.0,17.0,70,0.00,,,0.00,,2013-02-09 23:42:00,
2013-02-09 17:52:00,46.0,37.0,29.80,ESE,117,6.0,21.0,70,0.00,,,0.00,,2013-02-09 23:52:00,
2013-02-09 18:02:00,45.0,36.0,29.80,ESE,121,8.0,17.0,71,0.00,,,0.00,,2013-02-10 00:02:00,
2013-02-09 18:12:00,45.0,36.0,29.80,ESE,121,8.0,17.0,71,0.00,,,0.00,,2013-02-10 00:12:00,
2013-02-09 18:22:00,43.0,35.0,29.80,East,85,6.0,15.0,73,0.00,,,0.00,,2013-02-10 00:22:00,
2013-02-09 18:32:00,43.0,36.0,29.79,ESE,112,9.0,18.0,75,0.00,,,0.00,,2013-02-10 00:32:00,
2013-02-09 18:42:00,43.0,36.0,29.79,ESE,112,9.0,18.0,75,0.00,,,0.00,,2013-02-10 00:42:00,
2013-02-09 18:51:00,43.0,36.0,29.79,ESE,112,9.0,18.0,75,0.00,,,0.00,,2013-02-10 00:51:00,
2013-02-09 19:01:00,42.0,34.0,29.79,ESE,103,15.0,26.0,74,0.00,,,0.00,,2013-02-10 01:01:00,
2013-02-09 19:12:00,42.0,34.0,29.79,ESE,103,15.0,26.0,74,0.00,,,0.00,,2013-02-10 01:12:00,
2013-02-09 19:21:00,42.0,34.0,29.79,SE,125,14.0,26.0,74,0.00,,,0.00,,2013-02-10 01:21:00,
2013-02-09 19:32:00,42.0,35.0,29.79,SE,128,12.0,28.0,75,0.00,,,0.00,,2013-02-10 01:32:00,
2013-02-09 19:42:00,42.0,35.0,29.79,SE,128,12.0,28.0,75,0.00,,,0.00,,2013-02-10 01:42:00,
2013-02-09 19:51:00,41.0,34.0,29.78,ESE,123,12.0,25.0,75,0.00,,,0.00,,2013-02-10 01:51:00,
2013-02-09 20:01:00,41.0,34.0,29.78,SE,129,15.0,25.0,76,0.00,,,0.00,,2013-02-10 02:01:00,
2013-02-09 20:11:00,41.0,34.0,29.78,SE,129,15.0,25.0,76,0.00,,,0.00,,2013-02-10 02:11:00,
2013-02-09 20:22:00,40.0,33.0,29.78,SSE,161,15.0,23.0,77,0.00,,,0.00,,2013-02-10 02:22:00,
2013-02-09 20:32:00,40.0,33.0,29.77,SE,126,12.0,23.0,77,0.00,,,0.00,,2013-02-10 02:32:00,
2013-02-09 20:42:00,40.0,33.0,29.77,SE,126,12.0,23.0,77,0.00,,,0.00,,2013-02-10 02:42:00,
2013-02-09 20:52:00,40.0,34.0,29.77,ESE,107,13.0,20.0,78,0.00,,,0.00,,2013-02-10 02:52:00,
2013-02-09 21:02:00,39.0,33.0,29.76,ESE,107,12.0,24.0,78,0.00,,,0.00,,2013-02-10 03:02:00,
2013-02-09 21:11:00,39.0,33.0,29.76,ESE,107,12.0,24.0,78,0.00,,,0.00,,2013-02-10 03:11:00,
2013-02-09 21:21:00,39.0,33.0,29.75,ESE,111,13.0,24.0,79,0.00,,,0.00,,2013-02-10 03:21:00,
2013-02-09 21:32:00,38.0,32.0,29.75,ESE,110,9.0,23.0,80,0.00,,,0.00,,2013-02-10 03:32:00,
2013-02-09 21:42:00,38.0,32.0,29.75,ESE,110,9.0,23.0,80,0.00,,,0.00,,2013-02-10 03:42:00,
2013-02-09 21:51:00,38.0,33.0,29.74,ESE,103,13.0,19.0,82,0.00,,,0.00,,2013-02-10 03:51:00,
2013-02-09 22:01:00,38.0,33.0,29.72,ESE,103,14.0,24.0,82,0.00,,,0.00,,2013-02-10 04:01:00,
2013-02-09 22:11:00,38.0,33.0,29.72,ESE,103,14.0,24.0,82,0.00,,,0.00,,2013-02-10 04:11:00,
2013-02-09 22:21:00,38.0,33.0,29.71,East,101,11.0,23.0,82,0.00,,,0.00,,2013-02-10 04:21:00,
2013-02-09 22:32:00,38.0,33.0,29.72,ESE,103,14.0,23.0,82,0.00,,,0.00,,2013-02-10 04:32:00,
2013-02-09 22:42:00,38.0,33.0,29.72,ESE,103,14.0,23.0,82,0.00,,,0.00,,2013-02-10 04:42:00,
2013-02-09 22:52:00,38.0,33.0,29.70,ESE,116,14.0,25.0,82,0.00,,,0.00,,2013-02-10 04:52:00,
2013-02-09 23:01:00,38.0,33.0,29.69,ESE,116,15.0,23.0,82,0.00,,,0.00,,2013-02-10 05:01:00,
2013-02-09 23:11:00,38.0,33.0,29.69,ESE,116,15.0,23.0,82,0.00,,,0.00,,2013-02-10 05:11:00,
2013-02-09 23:22:00,38.0,33.0,29.69,ESE,116,15.0,23.0,82,0.00,,,0.00,,2013-02-10 05:22:00,
2013-02-09 23:31:00,38.0,33.0,29.70,SE,138,12.0,24.0,81,0.00,,,0.00,,2013-02-10 05:31:00,
2013-02-09 23:42:00,38.0,33.0,29.70,SE,138,12.0,24.0,81,0.00,,,0.00,,2013-02-10 05:42:00,
2013-02-09 23:52:00,38.0,32.0,29.69,ESE,123,12.0,22.0,80,0.00,,,0.00,,2013-02-10 05:52:00,